Location: Carrizalito
(10.3833°N, 67.0217°W)
Time: 17:47:08
(UTC+00:00)

PRISM - Visible Passes

Search period start: 28 March 2023 00:00
Search period end: 07 April 2023 00:00
Orbit: 542 x 564 km, 98.3° (Epoch: 27 March)

Date Brightness Start Highest point End Pass type
(mag) Time Alt. Az. Time Alt. Az. Time Alt. Az.
28 Mar ? 09:40:26 10° ENE 09:42:21 13° E 09:44:14 10° SE visible
28 Mar ? 23:18:53 10° SW 23:20:34 12° W 23:22:17 10° WNW visible
29 Mar ? 09:37:36 10° E 09:38:55 11° E 09:40:15 10° ESE visible
29 Mar ? 23:15:00 10° SW 23:17:08 14° W 23:19:17 10° WNW visible
30 Mar ? 23:11:12 10° SW 23:13:41 16° W 23:16:10 10° WNW visible
31 Mar ? 23:07:26 10° SW 23:10:11 18° W 23:12:57 10° NW visible
01 Apr ? 23:03:41 10° SSW 23:06:40 21° W 23:09:40 10° NW visible
02 Apr ? 22:59:57 10° SSW 23:03:08 24° W 23:06:19 10° NW visible
03 Apr ? 22:56:12 10° SSW 22:59:33 27° W 23:02:55 10° NW visible
04 Apr ? 22:52:27 10° SSW 22:55:56 31° W 22:59:28 10° NW visible
